Orange, MA

2:57 PM EDT on May 23, 2018 (GMT -0400)
Orange Municipal

Weather History for KORE - October, 2012

Change the Weather History Date:

Thursday, October 11, 2012

  Actual Average Record
Temperature  
Mean Temperature 44 °F -  
Max Temperature 53 °F 60 °F 75 °F (2003)
Min Temperature 34 °F 36 °F 28 °F (1996)
Degree Days  
Heating Degree Days 20    
Moisture  
Dew Point 34 °F    
Average Humidity 64    
Maximum Humidity 96    
Minimum Humidity 45    
Precipitation  
Precipitation 0.00 in - - ()
Sea Level Pressure  
Sea Level Pressure 30.04 in    
Wind  
Wind Speed 10 mph (WNW)    
Max Wind Speed 15 mph    
Max Gust Speed 24 mph    
Visibility 10 miles    
Events      
Averages and records for this station are not official NWS values.
T = Trace of Precipitation, MM = Missing Value Source: NWS Daily Summary

Daily Weather History Graph

Daily Weather History Graph

Search for Another Location

Airport or City:

Astronomy

Oct. 11, 2012 Rise Set
Actual Time 6:58 AM EDT 6:12 PM EDT
Civil Twilight 6:29 AM EDT 6:40 PM EDT
Nautical Twilight 5:57 AM EDT 7:13 PM EDT
Astronomical Twilight 5:24 AM EDT 7:46 PM EDT
Moon 2:28 AM EDT (10/11) 3:51 PM EDT (10/11)
Length of Visible Light 12h 11m
Length of Day
11h 14m
Waning Crescent, 18% of the Moon is Illuminated
Oct 11
Waning Crescent
Oct 15
New
Oct 21
First Quarter
Oct 29
Full
Nov 6
Last Quarter

Hourly Weather History & Observations

Time (EDT) Temp. Windchill Dew Point Humidity Pressure Visibility Wind Dir Wind Speed Gust Speed Precip Events Conditions
12:52 AM 48.0 °F - 37.9 °F 68% 29.86 in 10.0 mi West 10.4 mph 20.7 mph N/A   Mostly Cloudy
1:52 AM 46.9 °F - 37.0 °F 68% 29.88 in 10.0 mi WNW 5.8 mph - N/A   Clear
2:52 AM 46.0 °F 41.0 °F 35.1 °F 66% 29.89 in 10.0 mi West 10.4 mph - N/A   Clear
3:52 AM 45.0 °F 38.5 °F 34.0 °F 65% 29.92 in 10.0 mi WNW 13.8 mph 20.7 mph N/A   Partly Cloudy
4:52 AM 46.0 °F 40.6 °F 33.1 °F 61% 29.94 in 10.0 mi WNW 11.5 mph 19.6 mph N/A   Scattered Clouds
5:52 AM 45.0 °F 39.3 °F 34.0 °F 65% 29.98 in 10.0 mi West 11.5 mph 24.2 mph N/A   Clear
6:52 AM 44.1 °F 37.4 °F 34.0 °F 68% 30.00 in 10.0 mi West 13.8 mph 17.3 mph N/A   Clear
7:52 AM 45.0 °F 41.2 °F 34.0 °F 65% 30.04 in 10.0 mi West 6.9 mph - N/A   Scattered Clouds
8:52 AM 46.9 °F - 35.1 °F 63% 30.08 in 10.0 mi WNW 12.7 mph 19.6 mph N/A   Partly Cloudy
10:52 AM 50.0 °F - 34.0 °F 54% 30.12 in 10.0 mi WNW 10.4 mph 24.2 mph N/A   Scattered Clouds
11:52 AM 50.0 °F - 33.1 °F 52% 30.12 in 10.0 mi WNW 12.7 mph 21.9 mph N/A   Scattered Clouds
12:52 PM 52.0 °F - 34.0 °F 50% 30.12 in 10.0 mi West 13.8 mph 23.0 mph N/A   Mostly Cloudy
1:52 PM 53.1 °F - 34.0 °F 48% 30.11 in 10.0 mi WNW 13.8 mph 20.7 mph N/A   Mostly Cloudy
2:52 PM 53.1 °F - 32.0 °F 45% 30.11 in 10.0 mi NW 15.0 mph 21.9 mph N/A   Mostly Cloudy
4:52 PM 53.1 °F - 33.1 °F 47% 30.12 in 10.0 mi West 5.8 mph - N/A   Clear
5:52 PM 51.1 °F - 34.0 °F 52% 30.12 in 10.0 mi Calm Calm - N/A   Clear
7:52 PM 39.9 °F - 37.0 °F 89% 30.13 in 10.0 mi Calm Calm - N/A   Clear
9:52 PM 36.0 °F - 34.0 °F 93% 30.12 in 10.0 mi Calm Calm - N/A   Clear
11:52 PM 34.0 °F - 33.1 °F 96% 30.12 in 10.0 mi Calm Calm - N/A   Clear